| time (UTC) | temp F | wind direction | speed MPH | gust MPH | rain 1hr in | rain 24hr in | rain mn in | humidity % | barometer mb |
| 20260510034545 | 80 | 129 | 1.0 | 5.0 | 0.00 | 0.00 | 0.00 | 97 | 1008.6 |
| 20260510033048 | 80 | 163 | 2.0 | 5.0 | 0.00 | 0.00 | 0.00 | 97 | 1008.3 |
| 20260510031541 | 80 | 158 | 2.0 | 6.0 | 0.00 | 0.00 | 0.00 | 96 | 1008.3 |
| 20260510030044 | 80 | 136 | 3.0 | 6.0 | 0.00 | 0.00 | 0.00 | 96 | 1008.3 |
| 20260510024540 | 80 | 129 | 3.0 | 6.0 | 0.00 | 0.00 | 0.00 | 96 | 1008.1 |
| 20260510023038 | 81 | 144 | 3.0 | 5.0 | 0.00 | 0.00 | 0.00 | 97 | 1008.1 |
| 20260510021538 | 80 | 154 | 4.0 | 7.0 | 0.00 | 0.00 | 0.00 | 96 | 1007.7 |
| 20260510020044 | 80 | 146 | 4.0 | 7.0 | 0.00 | 0.00 | 0.00 | 96 | 1007.6 |
| 20260510014542 | 81 | 134 | 3.0 | 6.0 | 0.00 | 0.00 | 0.00 | 96 | 1007.5 |
| 20260510013036 | 81 | 162 | 4.0 | 7.0 | 0.00 | 0.00 | 0.00 | 96 | 1007.3 |
| 20260510011541 | 81 | 141 | 5.0 | 7.0 | 0.00 | 0.00 | 0.00 | 96 | 1007.2 |
| 20260510010035 | 81 | 140 | 4.0 | 8.0 | 0.00 | 0.00 | 0.00 | 96 | 1007.0 |
| 20260510004537 | 81 | 150 | 5.0 | 8.0 | 0.00 | 0.00 | 0.00 | 96 | 1006.8 |
| 20260510003033 | 81 | 148 | 3.0 | 8.0 | 0.00 | 0.00 | 0.00 | 95 | 1006.5 |
| 20260510001533 | 81 | 115 | 4.0 | 7.0 | 0.00 | 0.00 | 0.00 | 96 | 1006.3 |
| 20260510000055 | 81 | 136 | 4.0 | 9.0 | 0.00 | 0.00 | 0.00 | 95 | 1006.0 |
| 20260509234546 | 81 | 122 | 5.0 | 11.0 | 0.00 | 0.00 | 0.00 | 95 | 1005.8 |
| 20260509233033 | 81 | 131 | 5.0 | 9.0 | 0.00 | 0.00 | 0.00 | 95 | 1005.6 |
| 20260509231531 | 81 | 138 | 5.0 | 8.0 | 0.00 | 0.00 | 0.00 | 95 | 1005.4 |
| 20260509230035 | 81 | 148 | 4.0 | 7.0 | 0.00 | 0.00 | 0.00 | 95 | 1005.4 |
| 20260509224529 | 82 | 120 | 3.0 | 8.0 | 0.00 | 0.00 | 0.00 | 95 | 1005.4 |
| 20260509223029 | 82 | 155 | 6.0 | 9.0 | 0.00 | 0.00 | 0.00 | 95 | 1005.3 |
| 20260509221529 | 82 | 117 | 5.0 | 9.0 | 0.00 | 0.00 | 0.00 | 94 | 1005.0 |
| 20260509220024 | 82 | 139 | 5.0 | 9.0 | 0.00 | 0.00 | 0.00 | 94 | 1004.9 |
| 20260509183015 | 84 | 153 | 5.0 | 11.0 | 0.00 | 0.00 | 0.00 | 92 | 1007.1 |
| 20260509181513 | 84 | 128 | 3.0 | 10.0 | 0.00 | 0.00 | 0.00 | 93 | 1007.2 |
| 20260509180014 | 84 | 118 | 6.0 | 10.0 | 0.00 | 0.00 | 0.00 | 91 | 1007.5 |
| 20260509174511 | 84 | 169 | 7.0 | 11.0 | 0.00 | 0.00 | 0.00 | 91 | 1007.6 |
| 20260509173010 | 84 | 141 | 6.0 | 12.0 | 0.00 | 0.00 | 0.00 | 92 | 1007.8 |
| 20260509171509 | 84 | 129 | 7.0 | 13.0 | 0.00 | 0.00 | 0.00 | 91 | 1008.0 |
| 20260509170006 | 84 | 139 | 8.0 | 14.0 | 0.00 | 0.00 | 0.00 | 92 | 1008.2 |
| 20260509164505 | 84 | 178 | 6.0 | 13.0 | 0.00 | 0.00 | 0.00 | 93 | 1008.3 |
| 20260509163003 | 83 | 134 | 6.0 | 10.0 | 0.00 | 0.00 | 0.00 | 93 | 1008.4 |
| 20260509161502 | 83 | 129 | 5.0 | 10.0 | 0.00 | 0.00 | 0.00 | 95 | 1008.4 |
| 20260509160001 | 82 | 169 | 5.0 | 11.0 | 0.00 | 0.00 | 0.00 | 95 | 1008.4 |
| 20260509154558 | 82 | 179 | 6.0 | 10.0 | 0.00 | 0.00 | 0.00 | 95 | 1008.4 |
| 20260509153057 | 82 | 197 | 6.0 | 11.0 | 0.00 | 0.00 | 0.00 | 96 | 1008.4 |
| 20260509151604 | 82 | 165 | 5.0 | 10.0 | 0.00 | 0.00 | 0.00 | 95 | 1008.3 |
| 20260509150057 | 82 | 140 | 5.0 | 10.0 | 0.00 | 0.00 | 0.00 | 94 | 1008.3 |
| 20260509144608 | 82 | 225 | 6.0 | 9.0 | 0.00 | 0.00 | 0.00 | 95 | 1008.3 |
| 20260509143118 | 82 | 154 | 3.0 | 8.0 | 0.00 | 0.00 | 0.00 | 95 | 1008.3 |
| 20260509141553 | 82 | 162 | 4.0 | 8.0 | 0.00 | 0.00 | 0.00 | 95 | 1008.2 |
| 20260509140100 | 82 | 159 | 4.0 | 7.0 | 0.00 | 0.00 | 0.00 | 95 | 1008.1 |
| 20260509134606 | 81 | 143 | 4.0 | 7.0 | 0.00 | 0.00 | 0.00 | 96 | 1008.0 |
| 20260509133049 | 80 | 148 | 5.0 | 8.0 | 0.00 | 0.00 | 0.00 | 97 | 1007.8 |
| 20260509131547 | 80 | 147 | 4.0 | 8.0 | 0.00 | 0.00 | 0.00 | 97 | 1007.5 |
| 20260509130054 | 80 | 144 | 4.0 | 8.0 | 0.00 | 0.00 | 0.00 | 98 | 1007.2 |
| 20260509124544 | 80 | 169 | 3.0 | 7.0 | 0.00 | 0.00 | 0.00 | 98 | 1007.0 |
| 20260509123058 | 79 | 167 | 3.0 | 7.0 | 0.00 | 0.00 | 0.00 | 98 | 1006.7 |
| 20260509121600 | 79 | 151 | 4.0 | 8.0 | 0.00 | 0.00 | 0.00 | 98 | 1006.5 |
| 20260509120041 | 79 | 145 | 5.0 | 9.0 | 0.00 | 0.00 | 0.00 | 98 | 1006.4 |
| 20260509114541 | 79 | 150 | 4.0 | 6.0 | 0.00 | 0.02 | 0.00 | 99 | 1006.3 |
| 20260509113040 | 79 | 164 | 4.0 | 8.0 | 0.00 | 0.02 | 0.00 | 99 | 1006.1 |
| 20260509111555 | 79 | 146 | 4.0 | 7.0 | 0.00 | 0.02 | 0.00 | 98 | 1006.1 |
| 20260509110038 | 79 | 142 | 5.0 | 8.0 | 0.00 | 0.02 | 0.00 | 98 | 1005.8 |
| 20260509104543 | 79 | 146 | 3.0 | 7.0 | 0.00 | 0.02 | 0.00 | 99 | 1005.8 |
| 20260509103038 | 79 | 149 | 3.0 | 8.0 | 0.00 | 0.02 | 0.00 | 98 | 1005.7 |
| 20260509101636 | 79 | 162 | 4.0 | 8.0 | 0.00 | 0.02 | 0.00 | 98 | 1005.8 |
| 20260509100040 | 79 | 144 | 4.0 | 8.0 | 0.00 | 0.02 | 0.00 | 98 | 1005.7 |
| 20260509094538 | 79 | 133 | 6.0 | 9.0 | 0.00 | 0.02 | 0.00 | 98 | 1005.6 |
| 20260509093033 | 79 | 145 | 3.0 | 8.0 | 0.00 | 0.02 | 0.00 | 98 | 1005.6 |
| 20260509091539 | 79 | 151 | 4.0 | 8.0 | 0.00 | 0.02 | 0.00 | 98 | 1005.8 |
| 20260509090037 | 79 | 143 | 5.0 | 8.0 | 0.00 | 0.02 | 0.00 | 98 | 1005.8 |
| 20260509084528 | 79 | 122 | 4.0 | 8.0 | 0.00 | 0.04 | 0.00 | 98 | 1006.0 |
| 20260509083026 | 79 | 147 | 5.0 | 10.0 | 0.00 | 0.04 | 0.00 | 98 | 1006.2 |
| 20260509081528 | 79 | 127 | 6.0 | 11.0 | 0.00 | 0.04 | 0.00 | 98 | 1006.2 |
| 20260509080026 | 79 | 134 | 4.0 | 9.0 | 0.00 | 0.04 | 0.00 | 99 | 1006.3 |
| 20260509074531 | 80 | 141 | 5.0 | 9.0 | 0.00 | 0.04 | 0.00 | 99 | 1006.5 |
| 20260509073019 | 79 | 160 | 5.0 | 9.0 | 0.00 | 0.04 | 0.00 | 99 | 1006.7 |
| 20260509071517 | 80 | 135 | 5.0 | 10.0 | 0.00 | 0.04 | 0.00 | 99 | 1006.9 |
| 20260509070015 | 79 | 139 | 6.0 | 11.0 | 0.00 | 0.04 | 0.00 | 99 | 1007.2 |
| 20260509064513 | 79 | 143 | 7.0 | 10.0 | 0.00 | 0.04 | 0.00 | 99 | 1007.4 |
| 20260509063014 | 79 | 137 | 7.0 | 9.0 | 0.00 | 0.04 | 0.00 | 99 | 1007.6 |
| 20260509061607 | 79 | 149 | 6.0 | 9.0 | 0.00 | 0.04 | 0.00 | 99 | 1007.8 |
| 20260509060014 | 79 | 135 | 8.0 | 11.0 | 0.00 | 0.04 | 0.00 | 99 | 1007.9 |
| 20260509054505 | 79 | 163 | 6.0 | 11.0 | 0.00 | 0.04 | 0.04 | 99 | 1008.0 |
| 20260509053111 | 79 | 153 | 5.0 | 11.0 | 0.00 | 0.04 | 0.04 | 99 | 1008.1 |
| 20260509051505 | 80 | 141 | 5.0 | 10.0 | 0.00 | 0.04 | 0.04 | 99 | 1008.3 |
| 20260509050004 | 80 | 137 | 5.0 | 10.0 | 0.00 | 0.04 | 0.04 | 99 | 1008.2 |
| 20260509044501 | 80 | 139 | 7.0 | 10.0 | 0.00 | 0.05 | 0.04 | 99 | 1008.4 |
| 20260509043104 | 80 | 140 | 6.0 | 10.0 | 0.00 | 0.05 | 0.04 | 99 | 1008.4 |
| 20260509041701 | 80 | 127 | 7.0 | 11.0 | 0.00 | 0.05 | 0.04 | 99 | 1008.4 |
| 20260509040059 | 80 | 135 | 5.0 | 10.0 | 0.00 | 0.05 | 0.04 | 99 | 1008.5 |